FW4012 Weather Reports


Display with metric or nautical units.
time (UTC)temp
F
wind
direction
speed
MPH
gust
MPH
rain 1hr
in
rain 24hr
in
rain mn
in
humidity
%
barometer
mb
20260509224225 54 342 2.0 3.0 0.00 0.00 0.00 85 1013.8
20260509223724 54 342 1.0 3.0 0.00 0.00 0.00 85 1013.9
20260509223223 54 342 1.0 3.0 0.00 0.00 0.00 85 1013.8
20260509222741 54 344 1.0 3.0 0.00 0.00 0.00 85 1013.9
20260509222238 54 344 2.0 3.0 0.00 0.00 0.00 85 1013.9
20260509221738 54 344 1.0 2.0 0.00 0.00 0.00 84 1013.9
20260509221235 54 344 0.0 2.0 0.00 0.00 0.00 84 1013.8
20260509220759 54 344 1.0 2.0 0.00 0.00 0.00 84 1013.9
20260509220235 55 344 0.0 1.0 0.00 0.00 0.00 84 1013.8
20260509215735 55 344 0.0 0.0 0.00 0.00 0.00 83 1013.8
20260509215256 55 344 0.0 1.0 0.00 0.00 0.00 83 1013.7
20260509214735 55 344 1.0 1.0 0.00 0.00 0.00 83 1013.8
20260509214254 55 344 0.0 2.0 0.00 0.00 0.00 83 1013.8
20260509213731 55 344 0.0 3.0 0.00 0.00 0.00 83 1013.8
20260509213231 55 344 1.0 3.0 0.00 0.00 0.00 83 1013.8
20260509212731 55 227 0.0 0.0 0.00 0.00 0.00 83 1013.8
20260509212227 55 227 0.0 0.0 0.00 0.00 0.00 82 1013.7
20260509211723 55 227 0.0 0.0 0.00 0.00 0.00 82 1013.7
20260509211252 56 227 0.0 0.0 0.00 0.00 0.00 82 1013.7
20260509210730 56 227 0.0 0.0 0.00 0.00 0.00 82 1013.7
20260509210231 56 227 0.0 0.0 0.00 0.00 0.00 82 1013.6
20260509205749 56 227 0.0 0.0 0.00 0.00 0.00 81 1013.7
20260509205227 56 227 0.0 0.0 0.00 0.00 0.00 81 1013.7
20260509204725 56 227 0.0 0.0 0.00 0.00 0.00 81 1013.8
20260509204225 56 227 0.0 0.0 0.00 0.00 0.00 81 1013.6
20260509203723 56 227 0.0 0.0 0.00 0.00 0.00 80 1013.6
20260509203243 56 227 0.0 0.0 0.00 0.00 0.00 80 1013.7
20260509202747 57 227 0.0 0.0 0.00 0.00 0.00 80 1013.6
20260509202245 57 227 0.0 0.0 0.00 0.00 0.00 80 1013.6
20260509201723 57 227 0.0 0.0 0.00 0.00 0.00 79 1013.6
20260509201223 57 227 0.0 0.0 0.00 0.00 0.00 79 1013.6
20260509200724 57 227 0.0 0.0 0.00 0.00 0.00 79 1013.5
20260509200243 57 227 0.0 0.0 0.00 0.00 0.00 78 1013.5
20260509195741 57 227 0.0 0.0 0.00 0.00 0.00 78 1013.5
20260509195249 58 227 0.0 0.0 0.00 0.00 0.00 77 1013.4
20260509194748 58 227 0.0 0.0 0.00 0.00 0.00 77 1013.4
20260509194241 58 227 0.0 0.0 0.00 0.00 0.00 76 1013.2
20260509193740 58 227 0.0 0.0 0.00 0.00 0.00 76 1013.1
20260509193240 59 227 0.0 0.0 0.00 0.00 0.00 77 1013.1
20260509192739 59 227 0.0 0.0 0.00 0.00 0.00 76 1013.1
20260509192240 60 227 0.0 0.0 0.00 0.00 0.00 76 1013.1
20260509191739 60 227 0.0 0.0 0.00 0.00 0.00 75 1013.0
20260509191239 61 227 0.0 0.0 0.00 0.00 0.00 74 1013.0
20260509190739 62 227 0.0 0.0 0.00 0.00 0.00 73 1013.0
20260509190259 62 227 0.0 0.0 0.00 0.00 0.00 72 1013.0
20260509185736 63 227 0.0 0.0 0.00 0.00 0.00 71 1013.0
20260509185231 63 227 0.0 0.0 0.00 0.00 0.00 71 1013.0
20260509184728 64 227 0.0 0.0 0.00 0.00 0.00 70 1013.0
20260509184238 65 227 0.0 0.0 0.00 0.00 0.00 68 1013.0
20260509183736 65 227 0.0 0.0 0.00 0.00 0.00 66 1013.1
20260509183237 66 227 0.0 0.0 0.00 0.00 0.00 66 1013.1
20260509182737 67 227 0.0 0.0 0.00 0.00 0.00 65 1013.1
20260509182237 67 227 0.0 0.0 0.00 0.00 0.00 64 1013.0
20260509181737 68 227 0.0 0.0 0.00 0.00 0.00 63 1013.0
20260509181235 69 227 0.0 0.0 0.00 0.00 0.00 61 1012.9
20260509180738 69 227 0.0 0.0 0.00 0.00 0.00 60 1012.9
20260509180237 70 227 0.0 0.0 0.00 0.00 0.00 57 1012.9
20260509175735 70 227 0.0 0.0 0.00 0.00 0.00 58 1012.8
20260509175255 71 227 0.0 0.0 0.00 0.00 0.00 57 1012.9
20260509174733 71 227 0.0 1.0 0.00 0.00 0.00 56 1012.8
20260509174231 72 227 0.0 2.0 0.00 0.00 0.00 54 1012.9
20260509173758 72 227 1.0 2.0 0.00 0.00 0.00 53 1012.9
20260509173257 72 227 1.0 2.0 0.00 0.00 0.00 47 1012.8
20260509172729 73 227 2.0 3.0 0.00 0.00 0.00 45 1012.9
20260509172228 73 227 2.0 3.0 0.00 0.00 0.00 45 1013.0
20260509171728 73 227 2.0 3.0 0.00 0.00 0.00 45 1012.9
20260509171226 73 227 2.0 4.0 0.00 0.00 0.00 44 1012.9
20260509170745 74 227 2.0 4.0 0.00 0.00 0.00 43 1012.9
20260509170233 74 211 1.0 3.0 0.00 0.00 0.00 42 1012.9
20260509165732 74 211 1.0 4.0 0.00 0.00 0.00 43 1012.8
20260509165249 74 211 2.0 4.0 0.00 0.00 0.00 45 1012.9
20260509164746 74 229 2.0 7.0 0.00 0.00 0.00 43 1012.9
20260509164245 75 224 2.0 7.0 0.00 0.00 0.00 41 1013.0
20260509163744 75 244 2.0 4.0 0.00 0.00 0.00 41 1013.0
20260509163300 75 282 2.0 5.0 0.00 0.00 0.00 41 1013.0
20260509162737 75 207 2.0 5.0 0.00 0.00 0.00 40 1013.0
20260509162239 75 217 2.0 7.0 0.00 0.00 0.00 44 1013.1
20260509161737 75 217 3.0 7.0 0.00 0.00 0.00 42 1013.1
20260509161236 76 222 2.0 7.0 0.00 0.00 0.00 42 1013.1
20260509160736 76 196 3.0 7.0 0.00 0.00 0.00 42 1013.2
20260509160258 76 251 3.0 6.0 0.00 0.00 0.00 45 1013.2
20260509155807 75 197 3.0 7.0 0.00 0.04 0.00 43 1013.2
20260509155240 75 138 3.0 8.0 0.00 0.04 0.00 44 1013.2
20260509154734 75 180 3.0 9.0 0.00 0.04 0.00 43 1013.3
20260509154232 75 242 6.0 9.0 0.00 0.04 0.00 42 1013.3
20260509153729 75 244 5.0 10.0 0.00 0.04 0.00 42 1013.4
20260509153228 75 202 5.0 10.0 0.00 0.04 0.00 44 1013.3
20260509152729 75 242 2.0 8.0 0.00 0.04 0.00 45 1013.3
20260509152230 75 101 3.0 8.0 0.00 0.04 0.00 45 1013.4
20260509151728 75 161 5.0 8.0 0.00 0.04 0.00 44 1013.4
20260509151229 76 174 5.0 8.0 0.00 0.04 0.00 46 1013.5
20260509150728 76 190 4.0 8.0 0.00 0.04 0.00 46 1013.3
20260509150227 75 167 4.0 9.0 0.00 0.04 0.00 49 1013.3
20260509145727 75 235 4.0 10.0 0.00 0.28 0.00 48 1013.4
20260509145229 76 250 3.0 10.0 0.00 0.28 0.00 45 1013.3
20260509144723 76 264 6.0 10.0 0.00 0.28 0.00 46 1013.4
20260509144224 75 111 4.0 9.0 0.00 0.28 0.00 46 1013.3
20260509143743 75 219 5.0 9.0 0.00 0.28 0.00 48 1013.3
20260509143241 75 110 2.0 12.0 0.00 0.28 0.00 45 1013.3
20260509142758 75 132 5.0 12.0 0.00 0.28 0.00 46 1013.4
20260509142236 76 109 7.0 11.0 0.00 0.28 0.00 47 1013.4
20260509141735 76 164 2.0 9.0 0.00 0.28 0.00 45 1013.4
20260509141235 76 192 5.0 9.0 0.00 0.28 0.00 48 1013.6
20260509140758 76 209 3.0 9.0 0.00 0.28 0.00 49 1013.6
20260509140234 74 153 3.0 8.0 0.00 0.28 0.00 49 1013.6
20260509135734 73 130 4.0 9.0 0.00 0.47 0.00 48 1013.7
20260509135250 74 109 7.0 11.0 0.00 0.47 0.00 48 1013.8
20260509134727 75 150 4.0 11.0 0.00 0.47 0.00 48 1013.9
20260509134225 75 214 2.0 8.0 0.00 0.47 0.00 50 1014.0
20260509133723 75 245 5.0 8.0 0.00 0.47 0.00 48 1014.1
20260509133242 75 171 4.0 9.0 0.00 0.47 0.00 47 1014.2
20260509132740 74 193 3.0 13.0 0.00 0.47 0.00 49 1014.2
20260509132239 73 178 8.0 13.0 0.00 0.47 0.00 50 1014.3
20260509131733 73 117 5.0 10.0 0.00 0.47 0.00 48 1014.2
20260509131253 74 195 6.0 10.0 0.00 0.47 0.00 49 1014.3
20260509130731 75 175 5.0 10.0 0.00 0.47 0.00 49 1014.3
20260509130230 74 273 3.0 10.0 0.00 0.47 0.00 48 1014.4
20260509125737 74 248 4.0 8.0 0.00 0.47 0.00 47 1014.4
20260509125236 74 260 4.0 9.0 0.00 0.47 0.00 46 1014.4
20260509124735 74 269 3.0 9.0 0.00 0.47 0.00 47 1014.5
20260509124234 74 214 4.0 9.0 0.00 0.47 0.00 49 1014.5
20260509123733 74 189 3.0 8.0 0.00 0.47 0.00 48 1014.3
20260509123254 74 144 4.0 8.0 0.00 0.47 0.00 52 1014.4
20260509122743 74 213 4.0 8.0 0.00 0.47 0.00 52 1014.4
20260509122241 73 328 4.0 9.0 0.00 0.47 0.00 56 1014.3
20260509121738 73 245 4.0 9.0 0.00 0.47 0.00 52 1014.6
20260509121237 73 207 4.0 9.0 0.00 0.47 0.00 47 1014.5
20260509120757 74 45 1.0 5.0 0.00 0.47 0.00 54 1014.5
20260509120237 74 288 3.0 5.0 0.00 0.47 0.00 48 1014.5
20260509115736 74 271 2.0 9.0 0.00 0.47 0.00 52 1014.6
20260509115236 73 300 5.0 9.0 0.00 0.47 0.00 52 1014.5
20260509114737 74 240 6.0 9.0 0.00 0.47 0.00 48 1014.7
20260509114234 73 304 3.0 6.0 0.00 0.47 0.00 48 1014.7
20260509113731 72 343 2.0 4.0 0.00 0.47 0.00 51 1014.8
20260509113225 72 294 0.0 7.0 0.00 0.47 0.00 56 1014.8
20260509112724 72 138 4.0 7.0 0.00 0.47 0.00 53 1014.9
20260509112225 72 134 3.0 6.0 0.00 0.47 0.00 53 1014.9
20260509111723 71 256 0.0 4.0 0.00 0.47 0.00 56 1015.1
20260509111244 69 256 2.0 4.0 0.00 0.47 0.00 55 1015.0
20260509110723 70 158 2.0 10.0 0.00 0.47 0.00 55 1015.1
20260509110223 70 275 6.0 10.0 0.00 0.47 0.00 54 1015.3
20260509105742 70 78 1.0 5.0 0.00 0.47 0.00 56 1015.4
20260509105241 71 246 2.0 5.0 0.00 0.47 0.00 57 1015.6
20260509104740 70 195 0.0 7.0 0.00 0.47 0.00 59 1015.7
20260509104240 70 225 1.0 7.0 0.00 0.47 0.00 57 1015.8
20260509103735 70 263 4.0 7.0 0.00 0.47 0.00 57 1015.8
20260509103237 72 240 2.0 7.0 0.00 0.47 0.00 56 1015.8
20260509102738 71 223 1.0 6.0 0.00 0.47 0.00 56 1015.8
20260509102238 70 286 3.0 6.0 0.00 0.47 0.00 55 1015.8
20260509101738 70 198 2.0 7.0 0.00 0.47 0.00 54 1015.8
20260509101236 71 213 5.0 7.0 0.00 0.47 0.00 51 1015.8
20260509100735 72 119 4.0 8.0 0.00 0.47 0.00 56 1015.9
20260509100234 70 86 1.0 6.0 0.00 0.47 0.00 55 1015.9
20260509095734 70 103 4.0 6.0 0.00 0.47 0.00 56 1016.0
20260509095232 70 17 2.0 4.0 0.00 0.47 0.00 52 1016.0
20260509094729 69 109 1.0 5.0 0.00 0.47 0.00 55 1016.0
20260509094224 70 97 1.0 5.0 0.00 0.47 0.00 55 1016.0
20260509093743 70 153 3.0 7.0 0.00 0.47 0.00 56 1016.1
20260509093243 70 180 4.0 7.0 0.00 0.47 0.00 59 1016.1
20260509092811 69 100 0.0 5.0 0.00 0.47 0.00 56 1016.1
20260509092250 71 234 2.0 6.0 0.00 0.47 0.00 55 1016.0
20260509091751 70 207 2.0 5.0 0.00 0.47 0.00 56 1016.0
20260509091251 70 201 3.0 5.0 0.00 0.47 0.00 59 1016.1
20260509090751 69 145 0.0 3.0 0.00 0.47 0.00 60 1016.1
20260509090249 68 355 2.0 3.0 0.00 0.47 0.00 61 1016.2
20260509085745 68 42 1.0 5.0 0.00 0.47 0.00 61 1016.3
20260509085241 67 151 3.0 5.0 0.00 0.47 0.00 62 1016.3
20260509084755 67 292 1.0 3.0 0.00 0.47 0.00 63 1016.3
20260509084255 66 260 1.0 4.0 0.00 0.47 0.00 62 1016.3
20260509083734 66 260 1.0 4.0 0.00 0.47 0.00 62 1016.4
20260509083234 66 267 2.0 4.0 0.00 0.47 0.00 64 1016.4
20260509082733 65 242 3.0 4.0 0.00 0.47 0.00 63 1016.3
20260509082306 65 94 2.0 4.0 0.00 0.47 0.00 65 1016.3
20260509081730 65 76 2.0 4.0 0.00 0.47 0.00 66 1016.3
20260509081257 65 79 2.0 3.0 0.00 0.47 0.00 66 1016.3
20260509080730 65 40 0.0 2.0 0.00 0.47 0.00 66 1016.4
20260509080230 65 40 1.0 3.0 0.00 0.47 0.00 67 1016.4
20260509075729 65 109 1.0 6.0 0.00 0.47 0.00 69 1016.6
20260509075227 65 126 2.0 6.0 0.00 0.47 0.00 68 1016.5
20260509074727 64 107 0.0 3.0 0.00 0.47 0.00 68 1016.5
20260509074226 64 108 1.0 2.0 0.00 0.47 0.00 71 1016.6
20260509073724 64 345 0.0 3.0 0.00 0.47 0.00 70 1016.5
20260509073224 64 345 1.0 4.0 0.00 0.47 0.00 71 1016.5
20260509072739 64 342 1.0 4.0 0.00 0.47 0.00 70 1016.4
20260509072240 64 355 2.0 3.0 0.00 0.47 0.00 70 1016.4
20260509071740 63 15 1.0 4.0 0.00 0.47 0.00 72 1016.4
20260509071308 63 30 2.0 5.0 0.00 0.47 0.00 71 1016.4
20260509070735 63 23 1.0 5.0 0.00 0.47 0.00 72 1016.4
20260509070233 63 29 2.0 5.0 0.00 0.47 0.00 72 1016.4
20260509065744 63 50 2.0 3.0 0.00 0.47 0.00 75 1016.4
20260509065230 62 31 1.0 2.0 0.00 0.47 0.00 78 1016.4
20260509064758 61 15 1.0 3.0 0.00 0.47 0.00 82 1016.3
20260509064238 60 355 1.0 5.0 0.00 0.47 0.00 85 1016.5
20260509063758 59 334 3.0 6.0 0.00 0.47 0.00 88 1016.4
20260509063239 59 340 3.0 6.0 0.00 0.47 0.00 91 1016.5
20260509062736 58 309 1.0 4.0 0.00 0.47 0.00 92 1016.4
20260509062301 58 312 2.0 4.0 0.00 0.47 0.00 94 1016.4
20260509061738 57 321 2.0 5.0 0.00 0.47 0.00 94 1016.3
20260509061238 56 323 3.0 5.0 0.00 0.47 0.00 95 1016.4
20260509060738 55 319 3.0 5.0 0.00 0.47 0.00 95 1016.3
20260509060259 55 318 3.0 5.0 0.00 0.47 0.00 95 1016.3
20260509055758 55 333 3.0 5.0 0.00 0.47 0.00 96 1016.4
20260509055238 54 324 4.0 5.0 0.00 0.47 0.00 96 1016.4
20260509054738 53 320 3.0 4.0 0.00 0.47 0.00 96 1016.4
20260509054237 53 327 2.0 4.0 0.00 0.47 0.00 96 1016.3
20260509053735 52 336 3.0 4.0 0.00 0.47 0.00 96 1016.3
20260509053250 52 325 0.0 0.0 0.00 0.47 0.00 96 1016.4
20260509052729 51 325 0.0 0.0 0.00 0.47 0.00 96 1016.3
20260509052226 50 325 0.0 0.0 0.00 0.47 0.00 95 1016.3
20260509051727 49 325 0.0 0.0 0.00 0.47 0.00 95 1016.3
20260509051225 48 325 0.0 0.0 0.00 0.47 0.00 95 1016.3
20260509050731 48 325 0.0 0.0 0.00 0.47 0.00 95 1016.3
20260509050232 48 325 0.0 0.0 0.00 0.47 0.00 95 1016.3
20260509045731 48 325 0.0 0.0 0.00 0.47 0.00 94 1016.2
20260509045246 47 325 0.0 0.0 0.00 0.47 0.00 94 1016.2
20260509044727 47 325 0.0 0.0 0.00 0.47 0.00 94 1016.1
20260509044236 47 325 0.0 0.0 0.00 0.47 0.00 94 1016.0
20260509043737 47 325 0.0 0.0 0.00 0.47 0.00 94 1015.9
20260509043236 47 325 0.0 0.0 0.00 0.47 0.00 94 1015.8
20260509042755 47 325 0.0 0.0 0.00 0.47 0.00 94 1015.9
20260509042235 47 325 0.0 0.0 0.00 0.47 0.00 94 1015.9
20260509041733 47 325 0.0 0.0 0.00 0.47 0.00 94 1015.8
20260509041233 48 325 0.0 0.0 0.00 0.47 0.00 94 1015.8
20260509040752 48 325 0.0 3.0 0.00 0.47 0.00 94 1015.8
20260509040230 48 325 2.0 3.0 0.00 0.47 0.00 95 1015.8
20260509035729 48 323 2.0 3.0 0.00 0.47 0.00 94 1015.6
20260509035228 47 298 1.0 2.0 0.00 0.47 0.00 94 1015.7
20260509034752 48 298 0.0 2.0 0.00 0.47 0.00 94 1015.6
20260509034231 48 298 1.0 3.0 0.00 0.47 0.00 94 1015.6
20260509033729 48 297 2.0 4.0 0.00 0.47 0.00 94 1015.6
20260509033230 48 323 1.0 4.0 0.00 0.47 0.00 94 1015.6
20260509032728 48 306 3.0 4.0 0.00 0.47 0.00 94 1015.6
20260509032229 48 337 3.0 3.0 0.00 0.47 0.00 94 1015.7
20260509031730 48 308 2.0 3.0 0.00 0.47 0.00 94 1015.8
20260509031229 48 281 2.0 3.0 0.00 0.47 0.00 94 1015.8
20260509030731 48 355 1.0 4.0 0.00 0.47 0.00 94 1015.7
20260509030252 48 5 2.0 4.0 0.00 0.47 0.00 94 1015.7
20260509025746 48 318 2.0 3.0 0.00 0.47 0.00 93 1015.9
20260509025232 48 311 2.0 3.0 0.00 0.47 0.00 93 1015.9
20260509024731 48 311 1.0 2.0 0.00 0.47 0.00 94 1015.8
20260509024230 48 311 1.0 3.0 0.00 0.47 0.00 94 1015.7
20260509023730 48 311 2.0 3.0 0.00 0.47 0.00 93 1015.6
20260509023230 48 306 1.0 3.0 0.00 0.47 0.00 94 1015.4
20260509022750 48 306 2.0 4.0 0.00 0.47 0.00 94 1015.4
20260509022230 48 338 2.0 4.0 0.00 0.47 0.00 94 1015.5
20260509021727 48 329 3.0 4.0 0.00 0.47 0.00 94 1015.5
20260509021227 48 322 2.0 3.0 0.00 0.47 0.00 94 1015.5
20260509020754 48 324 2.0 3.0 0.00 0.47 0.00 93 1015.6
20260509020252 48 331 1.0 3.0 0.00 0.47 0.00 93 1015.7
20260509015751 48 331 1.0 3.0 0.00 0.47 0.00 93 1015.6
20260509015227 49 327 2.0 3.0 0.00 0.47 0.00 93 1015.8
20260509014727 49 331 1.0 2.0 0.00 0.47 0.00 93 1015.6
20260509014225 48 331 1.0 3.0 0.00 0.47 0.00 93 1015.8
20260509013724 49 331 1.0 3.0 0.00 0.47 0.00 93 1015.9
20260509013224 48 329 2.0 3.0 0.00 0.47 0.00 93 1016.0
20260509012755 48 329 1.0 2.0 0.00 0.47 0.00 93 1016.0
20260509012226 48 329 0.0 2.0 0.00 0.47 0.00 93 1016.0
20260509011726 48 329 2.0 2.0 0.00 0.47 0.00 93 1016.1
20260509011227 48 329 0.0 2.0 0.00 0.47 0.00 93 1016.0
20260509010745 49 329 1.0 2.0 0.00 0.47 0.00 93 1016.0
20260509010232 49 329 1.0 2.0 0.00 0.47 0.00 93 1016.0
20260509005751 49 329 1.0 2.0 0.00 0.47 0.00 93 1015.9
20260509005253 49 329 1.0 2.0 0.00 0.47 0.00 93 1016.0
20260509004752 49 329 0.0 3.0 0.00 0.47 0.00 93 1016.0
20260509004225 49 329 1.0 3.0 0.00 0.47 0.00 93 1015.8
20260509003726 49 329 0.0 0.0 0.00 0.47 0.00 93 1015.9
20260509003243 49 329 0.0 0.0 0.00 0.47 0.00 93 1015.8
20260509002723 49 329 0.0 0.0 0.00 0.47 0.00 93 1015.9
20260509002240 49 329 0.0 0.0 0.00 0.47 0.00 93 1015.8
20260509001801 49 329 0.0 0.0 0.00 0.47 0.00 92 1015.9
20260509001240 49 329 0.0 0.0 0.00 0.47 0.00 93 1015.9
20260509000736 49 329 0.0 0.0 0.00 0.47 0.00 92 1015.9
20260509000236 49 329 0.0 0.0 0.00 0.47 0.00 92 1015.8
20260508235735 49 329 0.0 0.0 0.00 0.47 0.00 92 1015.7
20260508235233 49 329 0.0 0.0 0.00 0.47 0.00 92 1015.8
20260508234818 49 329 0.0 0.0 0.00 0.47 0.00 92 1015.8
20260508233739 50 329 0.0 0.0 0.00 0.47 0.00 92 1015.6
20260508233239 50 329 0.0 0.0 0.00 0.47 0.00 92 1015.6
20260508232739 50 329 0.0 1.0 0.00 0.47 0.00 92 1015.6
20260508232238 50 329 0.0 3.0 0.00 0.47 0.00 92 1015.6
20260508231754 51 329 1.0 4.0 0.00 0.47 0.00 92 1015.6
20260508231234 51 329 2.0 4.0 0.00 0.47 0.00 92 1015.6
20260508230733 51 328 0.0 0.0 0.00 0.47 0.00 92 1015.5
20260508230232 51 342 0.0 0.0 0.00 0.47 0.00 92 1015.6
20260508225731 50 342 0.0 0.0 0.00 0.47 0.00 92 1015.7
20260508225232 50 342 0.0 0.0 0.00 0.47 0.00 92 1015.7
20260508224731 51 342 0.0 0.0 0.00 0.47 0.00 91 1015.7